WetterOnline ( http://www.wetteronline.de )

Wetter aktuell Malsch

Aktuelles Wetter: Rheinstetten (116m)

6-stündlich | Neueste Meldungen
Ortszeit Temperatur Wetter
Mo, 17.12. 1:00 0.9° C bedeckt
So, 16.12. 19:00 1.7° C bedeckt
So, 16.12. 13:00 0.9° C bedeckt
So, 16.12. 7:00 -1.7° C leichter Schneefall
So, 16.12. 1:00 -1.5° C bedeckt
Sa, 15.12. 19:00 -0.9° C fast wolkenlos
Sa, 15.12. 13:00 0.8° C bedeckt
Sa, 15.12. 7:00 -0.1° C bedeckt
Ortszeit Temperatur Wetter
Mo, 17.12. 2:00 1.5° C bewölkt
Mo, 17.12. 1:50 1.5° C bewölkt
Mo, 17.12. 1:40 1.6° C bewölkt
Mo, 17.12. 1:30 1.3° C wolkig
Mo, 17.12. 1:20 1.3° C wolkig
Mo, 17.12. 1:10 1.0° C bewölkt
Mo, 17.12. 1:00 0.9° C bedeckt
Mo, 17.12. 0:30 1.2° C bedeckt
Mo, 17.12. 0:00 1.4° C Nebel
So, 16.12. 23:30 1.3° C wolkig
So, 16.12. 23:00 1.7° C Nebel
Ortszeit Relative Feuchte Sichtweite
Mo, 17.12. 1:00 100% 1.8 km
So, 16.12. 19:00 100% 2.2 km
So, 16.12. 13:00 96% 3.2 km
So, 16.12. 7:00 97% 1.7 km
So, 16.12. 1:00 79% 19 km
Sa, 15.12. 19:00 69% 23 km
Sa, 15.12. 13:00 64% 26 km
Sa, 15.12. 7:00 66% 29 km
Ortszeit Relative Feuchte Sichtweite
Mo, 17.12. 2:00 100% 4.2 km
Mo, 17.12. 1:50 100% -
Mo, 17.12. 1:40 100% -
Mo, 17.12. 1:30 99% 4.0 km
Mo, 17.12. 1:20 99% -
Mo, 17.12. 1:10 100% -
Mo, 17.12. 1:00 100% 1.8 km
Mo, 17.12. 0:30 100% 2.0 km
Mo, 17.12. 0:00 100% 0.9 km
So, 16.12. 23:30 100% 1.2 km
So, 16.12. 23:00 100% 0.7 km
Ortszeit Niederschlagsmenge Niederschlagsart
Mo, 17.12. 1:00 0.1 l/m2 in 6 Std. Regen
So, 16.12. 19:00 1 l/m2 in 12 Std. Sprühregen
So, 16.12. 13:00 0.9 l/m2 in 6 Std. Schnee, Regen
So, 16.12. 7:00 3 l/m2 in 12 Std. Schnee
So, 16.12. 1:00 0.0 l/m2 in 6 Std. -
Sa, 15.12. 19:00 0.0 l/m2 in 12 Std. -
Sa, 15.12. 13:00 0.0 l/m2 in 6 Std. -
Sa, 15.12. 7:00 0.0 l/m2 in 12 Std. -
Ortszeit Niederschlagsmenge Niederschlagsart
Mo, 17.12. 2:00 0.0 l/m2 in 1 Std. -
Mo, 17.12. 1:50 keine Meldung -
Mo, 17.12. 1:40 keine Meldung -
Mo, 17.12. 1:30 0.0 l/m2 in 1 Std. -
Mo, 17.12. 1:20 keine Meldung -
Mo, 17.12. 1:10 keine Meldung -
Mo, 17.12. 1:00 0.0 l/m2 in 1 Std. Regen
Mo, 17.12. 0:30 0.0 l/m2 in 1 Std. -
Mo, 17.12. 0:00 0.0 l/m2 in 1 Std. -
So, 16.12. 23:30 0.0 l/m2 in 1 Std. -
So, 16.12. 23:00 0.0 l/m2 in 1 Std. -
Ortszeit Stärke Spitze Richtung
km/h Bft. km/h Grad Sektor
Mo, 17.12. 1:00 6 1 7 120° SO
So, 16.12. 19:00 4 1 11 140° SO
So, 16.12. 13:00 7 2 14 260° W
So, 16.12. 7:00 4 1 14 360° N
So, 16.12. 1:00 4 1 14 120° SO
Sa, 15.12. 19:00 9 2 26 110° O
Sa, 15.12. 13:00 11 2 22 90° O
Sa, 15.12. 7:00 9 2 20 130° SO
Ortszeit Stärke Spitze Richtung
km/h Bft. km/h Grad Sektor
Mo, 17.12. 2:00 2 1 6 280° W
Mo, 17.12. 1:50 2 1 - 280° W
Mo, 17.12. 1:40 4 1 - 220° SW
Mo, 17.12. 1:30 4 1 7 160° S
Mo, 17.12. 1:20 4 1 - 160° S
Mo, 17.12. 1:10 4 1 - 120° SO
Mo, 17.12. 1:00 6 1 6 120° SO
Mo, 17.12. 0:30 4 1 4 100° O
Mo, 17.12. 0:00 4 1 7 130° SO
So, 16.12. 23:30 4 1 7 130° SO
So, 16.12. 23:00 4 1 4 200° S
Ortszeit Untergrenze Bedeckung Gattung
total tief tief mittel hoch
Mo, 17.12. 1:00 - 8/8 - - - -
So, 16.12. 19:00 - 8/8 - - - -
So, 16.12. 13:00 150 m 8/8 8/8 - - -
So, 16.12. 7:00 150 m 8/8 8/8 - - -
So, 16.12. 1:00 3300 m 8/8 8/8 - - -
Sa, 15.12. 19:00 2100 m 1/8 1/8 - - -
Sa, 15.12. 13:00 900 m 8/8 8/8 - - -
Sa, 15.12. 7:00 930 m 8/8 8/8 - - -
Ortszeit Bedeckungsgrad in Achtel und Wolkenuntergrenze
Mo, 17.12. 2:00 7(270m)
Mo, 17.12. 1:50 7(270m)
Mo, 17.12. 1:40 7(270m)
Mo, 17.12. 1:30 6(300m) 6(960m)
Mo, 17.12. 1:20 6(300m) 6(960m)
Mo, 17.12. 1:10 5(300m) 7(480m)
Mo, 17.12. 1:00 9 9 9
Mo, 17.12. 0:30 7(270m) 8(420m) 9
Mo, 17.12. 0:00 5(330m) 7(480m) 7(690m)
So, 16.12. 23:30 5(330m) 6(480m)
So, 16.12. 23:00 9 9 9
Ortszeit Luftdruck NN (hPa) Tendenz (hPa in 3 Std.)
Mo, 17.12. 1:00 1017 + 0,4
So, 16.12. 19:00 1016 + 0,9
So, 16.12. 13:00 1014 - 0,4
So, 16.12. 7:00 1014 - 1,7
So, 16.12. 1:00 1018 - 2,8
Sa, 15.12. 19:00 1023 - 1,5
Sa, 15.12. 13:00 1025 - 1,4
Sa, 15.12. 7:00 1026 - 0,1
Ortszeit Luftdruck NN (hPa) Tendenz (hPa in 3 Std.)
Mo, 17.12. 2:00 1017 + 0,6
Mo, 17.12. 1:50 1017 keine Meldung
Mo, 17.12. 1:40 1017 keine Meldung
Mo, 17.12. 1:30 1017 + 0,6
Mo, 17.12. 1:20 1017 keine Meldung
Mo, 17.12. 1:10 1017 keine Meldung
Mo, 17.12. 1:00 1017 + 0,4
Mo, 17.12. 0:30 1017 + 0,7
Mo, 17.12. 0:00 1017 + 0,9
So, 16.12. 23:30 1017 + 0,8
So, 16.12. 23:00 1017 + 0,4
Ortszeit Schneehöhe (cm)
Mo, 17.12. 1:00 0
So, 16.12. 19:00 0
So, 16.12. 13:00 2
So, 16.12. 7:00 3
So, 16.12. 1:00 0
Sa, 15.12. 19:00 0
Sa, 15.12. 13:00 0
Sa, 15.12. 7:00 0
Ortszeit Schneehöhe (cm)
Mo, 17.12. 2:00 0
Mo, 17.12. 1:50 0
Mo, 17.12. 1:40 0
Mo, 17.12. 1:30 0
Mo, 17.12. 1:20 0
Mo, 17.12. 1:10 0
Mo, 17.12. 1:00 0
Mo, 17.12. 0:30 0
Mo, 17.12. 0:00 0
So, 16.12. 23:30 0
So, 16.12. 23:00 0
Link zu dieser Seite / Seite empfehlen

Das Wetter in ...